Regional Weather Roundup
Issued by NWS

Home | Current Version | Previous Version | Text Only | Print | Product List | Glossary On
Versions: 1 2 3 4 5 6 7 8 9 10 11 12 13 14 15 16 17 18 19 20 21 22 23 24 25 26 27 28 29 30 31 32 33 34 35 36 37 38 39 40 41 42 43 44 45 46 47 48 49 50
000
ASUS43 KMPX 302310
RWRMN
WEATHER ROUNDUP FOR MINNESOTA
NATIONAL WEATHER SERVICE TWIN CITIES/CHANHASSEN MN
600 PM CDT TUE SEP 30 2014


NOTE: "FAIR" INDICATES FEW OR NO CLOUDS BELOW 12,000 FEET WITH NO
SIGNIFICANT WEATHER AND/OR OBSTRUCTIONS TO VISIBILITY. N/A MEANS
CURRENT SKY AND/OR WEATHER CONDITIONS ARE NOT AVAILABLE.

MNZ060>063-068>070-010000-
   Twin Cities Metro

CITY           SKY/WX    TMP DP  RH WIND       PRES   REMARKS
TWIN CITIES    MOCLDY    57  45  64 SE12      29.91F
ST PAUL        MOCLDY    57  45  64 E12       29.93S
CRYSTAL        MOCLDY    58  43  57 SE12      29.90S
BLAINE         MOCLDY    57  46  67 E9        29.92R
LAKEVILLE      MOCLDY    55  46  71 E9        29.91S
EDEN PRAIRIE   MOCLDY    57  45  64 E9        29.89F
SOUTH ST PAUL  MOCLDY    58  44  58 SE7       29.92S
LAKE ELMO      FAIR      55  45  67 SE9       29.93S
$$
MNZ001>005-007-008-013>017-022>024-027-028-010000-
   Northwest Minnesota

CITY           SKY/WX    TMP DP  RH WIND       PRES   REMARKS
BEMIDJI        MOCLDY    55  42  63 SE17G23   29.82F
HALLOCK        CLOUDY    59  45  58 SE10      29.71S
ROSEAU         MOCLDY    61  45  55 E17G23    29.77F
WARROAD        MOCLDY    57  46  67 SE12      29.81F
THIEF RVR FALL CLOUDY    57  43  58 E18G24    29.73F
CROOKSTON      PTSUNNY   61  45  55 SE18G24   29.72R
FOSSTON        MOCLDY    55  43  62 E10G23    29.73F
DETROIT LAKES  PTSUNNY   55  45  67 SE23G30   29.75F
PARK RAPIDS    MOCLDY    55  41  59 SE16G26   29.81F
MAHNOMEN       FAIR      57  43  60 SE18G28   29.73R
$$
MNZ006-009>011-018-025>026-010000-
   North Central Minnesota

CITY           SKY/WX    TMP DP  RH WIND       PRES   REMARKS
BAUDETTE       MOCLDY    55  43  63 SE12G20   29.84F
FLAG ISLAND    PTCLDY    55  45  67 SE12G21   29.82F
INTL FALLS     PTCLDY    55  43  63 SE10      29.89F
WASKISH        MOCLDY    57  45  62 E9G16     29.84F
BIG FORK       MOCLDY    55  43  62 SE9       29.90F
LONGVILLE      MOCLDY    55  45  67 SE7       29.87R
GRAND RAPIDS   MOCLDY    52  39  62 SE7       29.91F
CRANE LAKE     CLEAR     55  43  62 SE3       29.95S
ORR            PTCLDY    54  37  54 SE8       29.91S
COOK           PTCLDY    54  41  62 SE6       29.95S
WALKER         FAIR      54  43  66 E9        29.84F
$$
MNZ012-019>021-037-010000-
   Northeast Minnesota

CITY           SKY/WX    TMP DP  RH WIND       PRES   REMARKS
DULUTH         MOCLDY    45  40  82 E13       29.98R
ELY            CLEAR     52  39  62 SE8       29.96F
HIBBING        MOCLDY    50  41  71 SE12      29.95S
EVELETH        PTCLDY    46  39  76 SE7       29.98R
DULUTH HARBOR  PTCLDY    50  46  87 NE24      30.00S
TWO HARBORS    CLOUDY    45  37  76 E12G17    29.99S
SILVER BAY     PTCLDY    43  41  93 E9G18     30.00F
GRAND MARAIS     N/A     50  37  61 E18       30.04F
G MARAIS ARPRT CLEAR     46  34  61 E9        30.03F
$$
MNZ029>031-032-039>041-046>048-054>057-064-010000-
   West Central Minnesota

CITY           SKY/WX    TMP DP  RH WIND       PRES   REMARKS
FERGUS FALLS   CLOUDY    57  45  62 SE17G24   29.73F
WHEATON        CLOUDY    54  46  76 SE24      29.70F
MORRIS         CLOUDY    57  48  72 SE22G30   29.72F
ALEXANDRIA     CLOUDY    55  45  68 SE21G32   29.79F
ELBOW LAKE     CLOUDY    55  47  72 SE22G30   29.73F
WADENA         MOCLDY    54  43  66 SE17G23   29.80S
GLENWOOD       CLOUDY    55  46  71 E10G18    29.80F
APPLETON       CLOUDY    59  48  67 SE22      29.72F
BENSON         CLOUDY    57  48  72 SE17G26   29.76F
ORTONVILLE     CLOUDY    55  48  76 SE15G25   29.70F
MADISON        CLOUDY    64  54  68 SE18      29.71F
WILLMAR        FAIR      57  46  67 E21G29    29.78F
$$
MNZ033>034-036-042>043-049>051-058-059-010000-
   Central Minnesota

CITY           SKY/WX    TMP DP  RH WIND       PRES   REMARKS
ST CLOUD       MOCLDY    57  44  62 SE13G22   29.88F
SAUK CENTRE    FAIR      54  45  70 E17       29.82S
PAYNESVILLE    CLOUDY    53  45  74 E18       29.83F
AITKIN         CLOUDY    59  45  58 E8        29.89S
PINE RIVER     MOCLDY    55  45  67 SE12      29.89F
BRAINERD       MOCLDY    53  43  68 SE8G20    29.88F
STAPLES        MOCLDY    54  43  66 E9G20     29.82F
LONG PRAIRIE   MOCLDY    54  43  66 E13       29.84R
LITTLE FALLS   MOCLDY    54  43  66 SE9       29.87F
LITCHFIELD     CLOUDY    57  48  72 SE13      29.86S
BUFFALO        MOCLDY    57  44  61 E9G18     29.89F
MAPLE LAKE     MOCLDY    58  47  68 E7        29.89F
$$
MNZ037-044-045-052-053-010000-
   East Central Minnesota

CITY           SKY/WX    TMP DP  RH WIND       PRES   REMARKS
PRINCETON      MOCLDY    57  45  62 E7        29.91S
MORA           CLOUDY    55  43  62 E5        29.93R
CAMBRIDGE      CLOUDY    57  45  62 E5        29.90F
RUSH CITY      CLOUDY    55  45  67 SE5       29.93R
MOOSE LAKE     CLOUDY    50  43  76 NE6       29.93S
HINCKLEY       FAIR      55  45  67 E9        29.94S
CLOQUET        MOCLDY    46  41  81 E12G17    29.96F
MCGREGOR       CLOUDY    54  45  71 E10G16    29.92S
$$
MNZ071>073-080-081-089-090-097-098-010000-
   Southwest Minnesota

CITY           SKY/WX    TMP DP  RH WIND       PRES   REMARKS
MONTEVIDEO     CLOUDY    59  52  77 S16G23    29.75F
GRANITE FALLS  CLOUDY    61  52  71 E13G21    29.77F
CANBY          CLOUDY    62  56  81 SE16      29.73S
MARSHALL       CLOUDY    61  54  77 SE21      29.73F
REDWOOD FALLS  CLOUDY    61  51  70 E17G28    29.76F
OLIVIA         CLOUDY    59  50  72 SE18G29   29.77F
PIPESTONE      CLOUDY    64  59  82 S17G25    29.75R
WINDOM         LGT RAIN  61  55  82 SE17G23   29.81F
WORTHINGTON    CLOUDY    61  57  88 S12       29.81R
JACKSON        LGT RAIN  61  55  82 E17       29.82F
TRACY          CLOUDY    60  57  90 S12G18    29.79R
SLAYTON        CLOUDY    58  57  96 SE12      29.79R FOG
$$
MNZ065>067-074>077-082>085-091>093-010000-
   South Central Minnesota

CITY           SKY/WX    TMP DP  RH WIND       PRES   REMARKS
MANKATO        MOCLDY    61  48  63 SE15      29.87F
NEW ULM        CLOUDY    61  54  77 SE12      29.84F
ST JAMES       LGT RAIN  63  55  77 SE10      29.87S
FAIRMONT       CLOUDY    63  52  67 SE5       29.88R
GLENCOE        CLOUDY    60  46  59 E12       29.86F
FARIBAULT      PTCLDY    61  48  63 SE8       29.91R
OWATONNA       PTCLDY    61  46  59 SE10G16   29.90R
WASECA         MOCLDY    59  46  63 E10       29.90F
ALBERT LEA     PTCLDY    61  52  72 SE9G18    29.89S
$$
MNZ078>079-086>088-094>096-010000-
   Southeast Minnesota

CITY           SKY/WX    TMP DP  RH WIND       PRES   REMARKS
ROCHESTER      MOCLDY    55  46  71 SE12      29.94S
RED WING       MOCLDY    55  45  67 SE12      29.92F
STANTON        MOCLDY    58  46  64 E6        29.90S
DODGE CENTER   MOCLDY    57  46  67 SE13      29.92R
WINONA         CLOUDY    54  46  76 SE8       29.97S
AUSTIN         PTCLDY    59  48  67 SE10      29.91S
PRESTON        MOCLDY    55  45  69 SE9       29.95R
$$
ABBREVIATIONS USED IN REMARKS
   TC - TEMPERATURES IN CELSIUS
  WCI - WIND CHILL INDEX
   HX - HEAT INDEX
  VSB - VISIBILITY
$$



USA.gov is the U.S. government's official web portal to all federal, state and local government web resources and services.